Plattsburgh, NY

6:13 AM EST on December 12, 2019 (GMT -0500)
Plattsburgh International

Weather History for KPBG - October, 2019

Change the Weather History Date:

Wednesday, October 9, 2019

  Actual Average Record
Temperature  
Mean Temperature 48 °F 50 °F  
Max Temperature 61 °F 59 °F 83 °F (2018)
Min Temperature 34 °F 40 °F 30 °F (1978)
Degree Days  
Heating Degree Days 18 15  
Month to date heating degree days 130 124  
Since 1 July heating degree days 322 359  
Cooling Degree Days 0 0  
Month to date cooling degree days 0 0  
Year to date cooling degree days 406 345  
Moisture  
Dew Point 40 °F    
Average Humidity 82    
Maximum Humidity 97    
Minimum Humidity 44    
Precipitation  
Precipitation 0.00 in - 1.75 in (1992)
Month to date precipitation 1.38 0.00  
Year to date precipitation 23.00  
Sea Level Pressure  
Sea Level Pressure 30.40 in    
Wind  
Wind Speed 1 mph ()    
Max Wind Speed 9 mph    
Max Gust Speed 11 mph    
Visibility 9.9 miles    
Events      
T = Trace of Precipitation, MM = Missing Value Source: Averaged Metar Reports

Daily Weather History Graph

Daily Weather History Graph

Search for Another Location

Airport or City:

Astronomy

Oct. 09, 2019 Rise Set
Actual Time 7:01 AM EDT 6:20 PM EDT
Civil Twilight 6:32 AM EDT 6:49 PM EDT
Nautical Twilight 5:58 AM EDT 7:23 PM EDT
Astronomical Twilight 5:24 AM EDT 7:57 PM EDT
Moon 5:03 PM EDT (10/9) 2:31 AM EDT (10/9)
Length of Visible Light 12h 17m
Length of Day
11h 19m
Waxing Gibbous, 85% of the Moon is Illuminated
Oct 9
Waxing Gibbous
Oct 13
Full
Oct 21
Last Quarter
Oct 27
New
Nov 4
First Quarter

Hourly Weather History & Observations

Time (EDT) Temp. Windchill Dew Point Humidity Pressure Visibility Wind Dir Wind Speed Gust Speed Precip Events Conditions
12:53 AM 39.0 °F - 37.9 °F 96% 30.38 in 10.0 mi Calm Calm - N/A   Clear
1:53 AM 39.0 °F - 37.0 °F 93% 30.39 in 10.0 mi Calm Calm - N/A   Clear
2:53 AM 37.0 °F - 36.0 °F 96% 30.38 in 9.0 mi Calm Calm - N/A   Clear
3:53 AM 36.0 °F 33.3 °F 35.1 °F 97% 30.38 in 10.0 mi South 3.5 mph - N/A   Clear
4:53 AM 37.0 °F - 35.1 °F 93% 30.39 in 8.0 mi Calm Calm - N/A   Clear
5:53 AM 35.1 °F - 34.0 °F 96% 30.40 in 9.0 mi Calm Calm - N/A   Clear
6:53 AM 36.0 °F - 34.0 °F 93% 30.41 in 10.0 mi Calm Calm - N/A   Clear
7:38 AM 35.1 °F - 34.0 °F 96% 30.41 in 10.0 mi Calm Calm - N/A   Scattered Clouds
7:53 AM 36.0 °F - 35.1 °F 97% 30.43 in 10.0 mi Calm Calm - N/A   Mostly Cloudy
8:14 AM 37.9 °F - 36.0 °F 93% 30.42 in 10.0 mi Calm Calm - N/A   Mostly Cloudy
8:41 AM 43.0 °F - 39.9 °F 89% 30.42 in 10.0 mi Calm Calm - N/A   Scattered Clouds
8:53 AM 44.1 °F - 41.0 °F 89% 30.43 in 10.0 mi Calm Calm - N/A   Partly Cloudy
9:53 AM 48.0 °F - 43.0 °F 83% 30.44 in 10.0 mi Calm Calm - N/A   Clear
10:53 AM 50.0 °F - 44.1 °F 80% 30.45 in 10.0 mi Calm Calm - N/A   Clear
11:53 AM 53.1 °F - 43.0 °F 69% 30.44 in 10.0 mi ENE 3.5 mph - N/A   Clear
12:53 PM 57.9 °F - 42.1 °F 56% 30.42 in 10.0 mi Variable 4.6 mph - N/A   Clear
1:53 PM 57.0 °F - 39.9 °F 53% 30.40 in 10.0 mi NE 6.9 mph - N/A   Clear
2:53 PM 59.0 °F - 41.0 °F 51% 30.39 in 10.0 mi NNE 6.9 mph - N/A   Clear
3:53 PM 59.0 °F - 37.0 °F 44% 30.38 in 10.0 mi ENE 5.8 mph - N/A   Clear
4:53 PM 60.1 °F - 39.9 °F 47% 30.38 in 10.0 mi NNE 4.6 mph - N/A   Clear
5:53 PM 55.0 °F - 44.1 °F 67% 30.37 in 10.0 mi WNW 3.5 mph - N/A   Clear
6:53 PM 50.0 °F - 46.0 °F 86% 30.37 in 10.0 mi Calm Calm - N/A   Clear
7:53 PM 48.0 °F - 45.0 °F 89% 30.38 in 10.0 mi Calm Calm - N/A   Clear
8:53 PM 46.0 °F - 44.1 °F 93% 30.38 in 10.0 mi Calm Calm - N/A   Clear
9:53 PM 44.1 °F - 42.1 °F 93% 30.38 in 10.0 mi Calm Calm - N/A   Clear
10:53 PM 44.1 °F - 42.1 °F 93% 30.39 in 10.0 mi Calm Calm - N/A   Clear
11:53 PM 44.1 °F - 42.1 °F 93% 30.38 in 10.0 mi Calm Calm - N/A   Clear